sat.trackr.live / text

‹ back to catalog

STARLINK-3255

NORAD 50201 · 2021-125AX

PAYLOAD ACTIVE UNKNOWN

§ Identity

Operator
Country
US
Launch date
2021-12-18
Launch site
AFWTR
Launch vehicle
Mass (kg)
RCS (m²)

Purposes: comms

External: N2YO · Heavens-Above · Gunter

§ Orbital elements

Epoch: 2026-06-03T03:40:49.137600Z

Period
87.66 min
Inclination
53.1708°
Eccentricity
0.0005886
Mean motion
16.42737736 rev/d
Perigee alt
154.7 km
Apogee alt
162.4 km
Semi-major
6,536.7 km
B*
4.0093e-4
RAAN
65.0042°
Arg perigee
260.5089°
Mean anomaly
99.5295°
Rev number
25,174

§ Raw data

STARLINK-32551 50201U 21125AX  26154.15334650  .08223432  12410-4  40093-3 0  99992 50201  53.1708  65.0042 0005886 260.5089  99.5295 16.42737736251742

JSON: /api/v1/satellites/50201 · /tle

For live sub-satellite position, see the globe view (requires WebGL).

§ Visibility from observer

Set your observer location to see the next 7 days of passes ≥ 10°. The values pass through the URL so the page stays shareable.

No JS? Fill the form by hand. The geolocation button needs JavaScript.